[[{"header":{"parameterUnit":"m.s-1","parameterCategory":1,"la1":30.2991,"la2":30.254,"lo1":-89.0895,"lo2":-89.0444,"dy":0.0017,"dx":0.0017,"nx":28,"ny":28,"refTime":"2025-08-28T09:00:00:Z","depth":0,"parameterNumber":2,"parameterNumberName":"U-component_of_WINDS"},"data":[0,0,0,0,0,0,0,0,0,0,0,0,0,0,0,0,0,0,0,0,0,0,0,0,0,0,0,0,0,0,0,0,0,0,0,0,0,0,0,0,0,0,0,0,0,0,0,0,0,0,0,0,0,0,0,0,0,0,-0.2194,-0.2196,0,-0.2381,-0.2384,-0.2386,-0.25,-0.25,-0.2501,-0.2501,-0.2703,-0.2708,-0.2713,0,0,0,0,0,0,0,0,0,0,0,0,0,-0.1944,-0.1948,-0.2193,-0.2196,-0.2198,-0.2381,-0.2384,-0.2386,-0.25,-0.25,-0.2501,-0.2502,-0.2702,-0.2707,-0.2713,0,0,0,0,0,0,0,0,0,0,0,0,0,-0.2084,-0.1949,-0.2193,-0.2277,-0.2286,-0.238,-0.2384,-0.2387,-0.25,-0.25,-0.2501,-0.2502,-0.27,-0.2707,-0.2714,-0.2743,0,0,-0.2736,-0.2739,0,0,0,0,0,0,0,0,-0.2076,-0.2093,-0.2262,-0.2271,-0.2282,-0.2418,-0.237,-0.2507,-0.2499,-0.2419,-0.2501,-0.2502,-0.2608,-0.2623,-0.2657,-0.2752,-0.2761,-0.2737,-0.2741,-0.2745,-0.2747,0,0,0,0,0,0,0,-0.2066,-0.2086,-0.2268,-0.2264,-0.2276,-0.2308,-0.2329,-0.2396,-0.2507,-0.2426,-0.2435,-0.2455,-0.2614,-0.2649,-0.2662,-0.2764,-0.2737,-0.2743,-0.2748,-0.2751,-0.2897,-0.2896,0,0,0,0,0,0,-0.2042,-0.2077,-0.2262,-0.2274,-0.2179,-0.2312,-0.2335,-0.2373,-0.2507,-0.2527,-0.2454,-0.2459,-0.2637,-0.2654,-0.267,-0.2714,-0.2744,-0.2751,-0.2756,-0.2897,-0.2896,-0.2896,0,0,0,0,0,0,-0.2036,-0.2057,-0.2255,-0.2178,-0.2205,-0.2315,-0.2357,-0.2377,-0.2412,-0.2527,-0.2549,-0.2469,-0.2638,-0.266,-0.2724,-0.2723,-0.2755,-0.2761,-0.2898,-0.2897,-0.2896,-0.2802,0,0,0,0,0,0,-0.2028,-0.2055,-0.2064,-0.2177,-0.2209,-0.2302,-0.2357,-0.238,-0.2424,-0.2433,-0.2548,-0.2568,-0.264,-0.2712,-0.2731,-0.2734,-0.2767,-0.2898,-0.2897,-0.2896,-0.2806,-0.2798,-0.2791,0,0,0,0,0,-0.2019,-0.2031,-0.2064,-0.2085,-0.2222,-0.2301,-0.232,-0.2401,-0.2423,-0.2435,-0.251,-0.2564,-0.272,-0.2718,-0.274,-0.2745,-0.2899,-0.2898,-0.2897,-0.2809,-0.28,-0.2792,0,0,0,0,0,0,-0.1918,-0.2048,-0.2085,-0.2133,-0.2205,-0.232,-0.2338,-0.2388,-0.2457,-0.2463,-0.2564,-0.2589,-0.2644,-0.2701,-0.2697,-0.2782,-0.2816,-0.2819,-0.2742,-0.2734,-0.2727,-0.2712,-0.2773,0,0,0,0,0,-0.1901,-0.1951,-0.2063,-0.2095,-0.2129,-0.2227,-0.2264,-0.232,-0.24,-0.2432,-0.2511,-0.2589,-0.2656,-0.2698,-0.2766,-0.2815,-0.2843,-0.2829,-0.2822,-0.2816,-0.2818,-0.285,-0.2846,-0.2892,-0.2892,-0.2892,0,0,-0.1867,-0.1944,-0.197,-0.2077,-0.2139,-0.2192,-0.2252,-0.2305,-0.2346,-0.2441,-0.2506,-0.2567,-0.2661,-0.2718,-0.2747,-0.2768,-0.2811,-0.2814,-0.2808,-0.2814,-0.2849,-0.2844,-0.284,-0.2891,-0.2892,-0.2892,0,0,-0.1832,-0.1894,-0.1928,-0.1989,-0.2082,-0.2147,-0.2155,-0.2263,-0.2307,-0.2373,-0.2446,-0.2499,-0.2611,-0.2676,-0.2723,-0.2715,-0.2768,-0.2734,-0.2698,-0.2728,-0.2725,-0.2722,-0.2721,-0.2719,-0.2736,-0.2736,-0.2735,0,-0.1779,-0.1858,-0.1941,-0.1989,-0.2036,-0.2121,-0.2159,-0.2216,-0.2326,-0.2358,-0.2379,-0.2523,-0.2592,-0.2667,-0.2664,-0.27,-0.2715,-0.2722,-0.2718,-0.2716,-0.2715,-0.2715,-0.2714,-0.2731,-0.2731,-0.2732,-0.2732,0,-0.1789,-0.1843,-0.1861,-0.1963,-0.2011,-0.2054,-0.2147,-0.2187,-0.2239,-0.2303,-0.2372,-0.2458,-0.2546,-0.2568,-0.262,-0.2651,-0.2661,-0.2698,-0.2735,-0.2704,-0.2706,-0.2707,-0.2724,-0.2726,-0.2727,-0.2728,0,0,-0.1695,-0.1842,-0.1848,-0.1896,-0.2005,-0.205,-0.2099,-0.2182,-0.2215,-0.229,-0.2336,-0.2429,-0.2465,-0.2519,-0.258,-0.2607,-0.2597,-0.2642,-0.2646,-0.2632,-0.2639,-0.261,-0.2609,-0.2633,-0.2634,-0.2634,-0.2631,0,-0.1678,-0.1765,-0.1842,-0.1903,-0.1956,-0.2039,-0.2082,-0.2155,-0.2217,-0.2275,-0.2345,-0.241,-0.2451,-0.2485,-0.2515,-0.2591,-0.26,-0.2593,-0.268,-0.2682,-0.2654,-0.2609,-0.2579,-0.2572,-0.2633,-0.2633,-0.2633,0,-0.1668,-0.1736,-0.1801,-0.1906,-0.1932,-0.1968,-0.2052,-0.2104,-0.2191,-0.2235,-0.2295,-0.2358,-0.2418,-0.2448,-0.2533,-0.2527,-0.2567,-0.2611,-0.2613,-0.2625,-0.2655,-0.2621,-0.2572,-0.2571,-0.2635,-0.2634,-0.2634,0,-0.1594,-0.1703,-0.1756,-0.1795,-0.1919,-0.1943,-0.1996,-0.2084,-0.2129,-0.2204,-0.2235,-0.2316,-0.2361,-0.2424,-0.251,-0.2523,-0.2587,-0.2624,-0.2628,-0.2626,-0.2638,-0.2636,-0.2595,-0.2662,-0.2662,-0.2662,-0.2662,0,-0.1567,-0.1604,-0.1725,-0.1758,-0.1803,-0.1893,-0.1937,-0.1998,-0.2075,-0.2125,-0.2203,-0.2249,-0.2358,-0.2418,-0.2486,-0.2547,-0.2567,-0.2607,-0.2624,-0.26,-0.2595,-0.2629,-0.2632,-0.2662,-0.2662,-0.2662,-0.2662,0,-0.1492,-0.1574,-0.1638,-0.175,-0.1779,-0.1808,-0.1905,-0.1943,-0.2009,-0.2071,-0.2091,-0.2197,-0.2271,-0.2362,-0.2467,-0.2513,-0.2569,-0.2595,-0.2538,-0.2549,-0.2548,-0.2547,-0.2528,-0.2532,-0.2594,-0.2593,-0.2592,0,-0.1469,-0.1499,-0.1614,-0.165,-0.1701,-0.1759,-0.1806,-0.1897,-0.1943,-0.2045,-0.2071,-0.2151,-0.2219,-0.2336,-0.2424,-0.2506,-0.2535,-0.2523,-0.2548,-0.2523,-0.2537,-0.2534,-0.2539,-0.2517,-0.2516,-0.2515,-0.2514,0,-0.1421,-0.146,-0.1522,-0.1598,-0.1651,-0.1716,-0.1786,-0.1813,-0.1919,-0.1968,-0.2043,-0.2096,-0.2202,-0.2282,-0.2375,-0.2435,-0.2493,-0.2505,-0.2511,-0.2486,-0.2453,-0.2472,-0.2521,-0.2505,-0.2506,-0.2507,-0.2507,-0.2508,-0.1373,-0.1404,-0.1489,-0.1556,-0.1618,-0.1681,-0.1721,-0.1792,-0.1856,-0.1947,-0.1998,-0.2073,-0.2163,-0.2293,-0.2351,-0.2413,-0.2434,-0.2442,-0.2444,-0.2445,-0.2438,-0.2441,-0.2431,-0.2431,-0.2431,-0.2432,-0.2432,0,-0.133,-0.1388,-0.1449,-0.1542,-0.1596,-0.1643,-0.1723,-0.1766,-0.1829,-0.1906,-0.1972,-0.206,-0.2138,-0.2233,-0.2318,-0.235,-0.238,-0.237,-0.2369,-0.2382,-0.2414,-0.2401,-0.2345,-0.2345,-0.2345,-0.2345,-0.2345,-0.2345,-0.1313,-0.1369,-0.1418,-0.1507,-0.1567,-0.1638,-0.168,-0.174,-0.1802,-0.1896,-0.196,-0.202,-0.2106,-0.2198,-0.2273,-0.23,-0.2328,-0.231,-0.2345,-0.2372,-0.238,-0.2387,-0.2376,-0.2316,-0.2316,-0.2309,-0.2309,-0.2309]},{"header":{"parameterUnit":"m.s-1","parameterCategory":1,"la1":30.2991,"la2":30.254,"lo1":-89.0895,"lo2":-89.0444,"dy":0.0017,"dx":0.0017,"nx":28,"ny":28,"refTime":"2025-08-28T09:00:00:Z","depth":0,"parameterNumber":3,"parameterNumberName":"V-component_of_WINDS"},"data":[0,0,0,0,0,0,0,0,0,0,0,0,0,0,0,0,0,0,0,0,0,0,0,0,0,0,0,0,0,0,0,0,0,0,0,0,0,0,0,0,0,0,0,0,0,0,0,0,0,0,0,0,0,0,0,0,0,0,7.1493,7.1495,0,7.171,7.1712,7.1715,7.1728,7.1726,7.1724,7.1721,7.1932,7.194,7.1947,0,0,0,0,0,0,0,0,0,0,0,0,0,7.1077,7.1085,7.1493,7.1495,7.1498,7.171,7.1713,7.1716,7.1729,7.1726,7.1723,7.172,7.1929,7.1939,7.1948,0,0,0,0,0,0,0,0,0,0,0,0,0,7.1272,7.1087,7.1492,7.1531,7.1536,7.1709,7.1713,7.1716,7.1729,7.1726,7.1722,7.1719,7.1926,7.1938,7.1949,7.2095,0,0,7.1985,7.1991,0,0,0,0,0,0,0,0,7.1261,7.1287,7.1522,7.1528,7.1535,7.1689,7.1643,7.1843,7.173,7.1656,7.1721,7.1717,7.1853,7.1871,7.1919,7.2105,7.2114,7.1987,7.1994,7.1999,7.2002,0,0,0,0,0,0,0,7.1248,7.1278,7.1578,7.1525,7.1533,7.1533,7.1557,7.1681,7.1772,7.1662,7.1664,7.169,7.1856,7.1908,7.1924,7.2117,7.1986,7.1997,7.2004,7.2009,7.2431,7.2435,0,0,0,0,0,0,7.1228,7.1267,7.1571,7.1585,7.1387,7.1543,7.157,7.1643,7.1771,7.1787,7.1693,7.1689,7.1889,7.191,7.1932,7.211,7.1999,7.201,7.2017,7.2427,7.2432,7.2437,0,0,0,0,0,0,7.1219,7.1256,7.1563,7.1426,7.1466,7.1555,7.1636,7.1649,7.1701,7.1794,7.1809,7.173,7.1887,7.1915,7.2055,7.2117,7.2015,7.2026,7.2422,7.2429,7.2434,7.2467,0,0,0,0,0,0,7.1207,7.1252,7.1311,7.1428,7.1473,7.1686,7.164,7.1656,7.1723,7.1721,7.1833,7.1848,7.1887,7.2037,7.2067,7.2132,7.2035,7.2417,7.2425,7.2432,7.2461,7.2474,7.2485,0,0,0,0,0,7.1193,7.131,7.1314,7.1351,7.1549,7.169,7.1715,7.1761,7.1728,7.1786,7.1845,7.1844,7.2106,7.2051,7.2085,7.2154,7.2413,7.2423,7.2432,7.2456,7.2472,7.2485,0,0,0,0,0,0,7.1195,7.1326,7.1332,7.1492,7.158,7.1692,7.1767,7.1776,7.1872,7.1866,7.1915,7.194,7.2078,7.213,7.2067,7.2301,7.2255,7.2272,7.2262,7.2278,7.229,7.2273,7.2045,0,0,0,0,0,7.1214,7.1321,7.1428,7.1558,7.1603,7.1677,7.174,7.1768,7.1859,7.1896,7.1965,7.2051,7.2152,7.2218,7.2316,7.2469,7.2492,7.2533,7.2545,7.2554,7.2567,7.2649,7.2668,7.2467,7.2467,7.2467,0,0,7.1255,7.134,7.1403,7.1561,7.1633,7.1738,7.1708,7.1822,7.1899,7.1912,7.2049,7.2103,7.2201,7.2348,7.2416,7.2395,7.2628,7.2566,7.2573,7.2581,7.2661,7.268,7.2697,7.2473,7.2472,7.2471,0,0,7.1382,7.1459,7.1575,7.1648,7.1758,7.1807,7.1834,7.1946,7.1983,7.2122,7.2133,7.2224,7.2399,7.2468,7.2526,7.268,7.2681,7.271,7.2772,7.2852,7.2867,7.2882,7.2935,7.2953,7.2723,7.2723,7.2723,0,7.1418,7.1582,7.1632,7.1747,7.1814,7.1834,7.195,7.2016,7.2151,7.2196,7.2172,7.2391,7.2458,7.2621,7.2658,7.2705,7.2736,7.2697,7.2862,7.2877,7.2891,7.2942,7.2962,7.2726,7.2725,7.2725,7.2725,0,7.1619,7.1732,7.1812,7.1946,7.2022,7.2136,7.22,7.2271,7.2292,7.2342,7.2481,7.2564,7.2679,7.2719,7.2739,7.2884,7.2868,7.2852,7.2807,7.2912,7.296,7.298,7.273,7.2729,7.2728,7.2727,0,0,7.1754,7.1915,7.1943,7.2004,7.2127,7.2213,7.2326,7.2443,7.2501,7.2593,7.2687,7.2834,7.2821,7.2886,7.2914,7.2984,7.3099,7.296,7.2963,7.2982,7.3261,7.3271,7.3293,7.3101,7.3105,7.3108,7.3252,0,7.1894,7.2102,7.215,7.2326,7.2429,7.2449,7.2547,7.263,7.268,7.2771,7.2824,7.2927,7.2902,7.2942,7.3013,7.307,7.3155,7.306,7.3185,7.3189,7.316,7.3319,7.333,7.3462,7.3271,7.3275,7.3277,0,7.2086,7.2187,7.2374,7.2482,7.2527,7.2615,7.2725,7.2814,7.2907,7.2938,7.3012,7.3032,7.3147,7.3097,7.3254,7.3188,7.3242,7.3277,7.3283,7.3296,7.3239,7.3334,7.3506,7.3525,7.3308,7.3305,7.3303,0,7.2165,7.2346,7.2481,7.2532,7.2662,7.2723,7.278,7.287,7.2937,7.3031,7.3074,7.3179,7.3236,7.3315,7.3361,7.3321,7.3514,7.3468,7.3539,7.3538,7.3578,7.3575,7.376,7.3615,7.3614,7.3614,7.3614,0,7.2316,7.243,7.2518,7.2601,7.2727,7.278,7.2902,7.2958,7.3038,7.3129,7.3151,7.3235,7.3292,7.3383,7.342,7.3543,7.3569,7.3594,7.3602,7.3592,7.3589,7.3627,7.3618,7.3619,7.3618,7.3617,7.3616,0,7.2425,7.249,7.2638,7.275,7.278,7.2868,7.2962,7.3041,7.309,7.3205,7.3235,7.3312,7.342,7.3475,7.3609,7.3633,7.3772,7.3775,7.3741,7.3744,7.3812,7.3805,7.4027,7.4058,7.3893,7.3895,7.3896,0,7.2518,7.2606,7.2727,7.2792,7.2851,7.2954,7.3023,7.3076,7.3146,7.3259,7.3324,7.3434,7.3525,7.3696,7.3761,7.3863,7.3868,7.3939,7.3883,7.387,7.3868,7.3861,7.3869,7.3948,7.395,7.3951,7.3952,0,7.2674,7.2701,7.2802,7.2913,7.2995,7.3084,7.3172,7.3222,7.3289,7.3366,7.3479,7.355,7.3688,7.3796,7.3903,7.3956,7.3964,7.397,7.3991,7.3981,7.3958,7.397,7.3767,7.3964,7.3963,7.3962,7.3961,7.3961,7.2777,7.2856,7.2954,7.3064,7.3136,7.3218,7.3298,7.3358,7.3455,7.3574,7.3598,7.3717,7.3806,7.3951,7.4008,7.4099,7.4083,7.4115,7.4123,7.4129,7.4132,7.3944,7.4118,7.4118,7.4118,7.4117,7.4117,0,7.2933,7.2998,7.3099,7.3223,7.3308,7.3313,7.3409,7.348,7.3586,7.367,7.376,7.3888,7.3992,7.4066,7.4172,7.423,7.4236,7.4256,7.4251,7.4263,7.4141,7.4111,7.4249,7.4249,7.4249,7.4249,7.4249,7.4249,7.3025,7.3159,7.3197,7.3365,7.3427,7.3547,7.3602,7.3675,7.3743,7.3887,7.3975,7.4024,7.4103,7.4214,7.4309,7.4327,7.4364,7.4384,7.4402,7.4286,7.4272,7.4258,7.4231,7.4392,7.4392,7.4517,7.4518,7.4519]}]]